Date String (YYYY-MM-DD hh:mm:ss) UTC,Instrument flags,Ambient pressure (hPa),Sample flow (lpm),Bypass flow (lpm),Sample temperature (°C),Ambient temperature (°C),ASC tube jacket temperature (°C),LED temperature (°C),Box temperature (°C),Sample RH (%),Span deviation,Mass concentration (μg/m³),Mass concentration (μg/m³),Mass concentration (μg/m³)
DateTimeUTC,F1_M11,P_M11,Q1_M11,Q2_M11,T1_M11,T2_M11,T3_M11,T4_M11,T5_M11,U1_M11,ZSPAN_M11,X0_M11,X2_M11,X1_M11
2021-11-24 04:00:00,,0814.4,4.99,0.00,26.9,26.0,00.0,36.0,28.5,08.5,0000.0,0004.77,0002.08,0001.61
2021-11-24 04:01:00,,0814.3,5.01,0.00,26.9,26.0,00.0,36.0,28.5,08.6,0000.0,0004.49,0002.07,0001.63
2021-11-24 04:02:00,,0814.3,5.00,0.00,26.9,25.9,00.0,35.9,28.6,08.9,0000.0,0004.30,0002.05,0001.64
2021-11-24 04:03:00,,0814.3,5.00,0.00,26.9,25.9,00.0,35.9,28.5,09.0,0000.0,0004.13,0002.03,0001.67
2021-11-24 04:04:00,,0814.3,5.01,0.00,26.9,25.9,00.0,35.9,28.5,09.1,0000.0,0004.37,0002.11,0001.69
2021-11-24 04:05:00,,0814.2,5.00,0.00,26.9,25.9,00.0,35.9,28.6,09.1,0000.0,0004.31,0002.13,0001.72
2021-11-24 04:06:00,,0814.3,5.00,0.00,26.9,25.9,00.0,35.9,28.5,09.2,0000.0,0003.98,0002.15,0001.73
2021-11-24 04:07:00,,0814.3,5.00,0.00,26.9,25.9,00.0,35.9,28.6,09.2,0000.0,0003.90,0002.18,0001.73
2021-11-24 04:08:00,,0814.4,4.99,0.00,26.9,25.9,00.0,35.9,28.5,09.3,0000.0,0003.71,0002.21,0001.75
2021-11-24 04:09:00,,0814.2,5.00,0.00,26.9,25.9,00.0,35.9,28.5,09.4,0000.0,0004.88,0002.24,0001.77
2021-11-24 04:10:00,,0814.1,5.01,0.00,26.9,25.9,00.0,35.9,28.5,08.8,0000.0,0005.01,0002.30,0001.80
2021-11-24 04:11:00,,0814.3,5.00,0.00,26.8,25.9,00.0,35.9,28.6,08.7,0000.0,0005.59,0002.37,0001.83
2021-11-24 04:12:00,,0814.1,5.00,0.00,26.8,25.9,00.0,35.9,28.6,08.4,0000.0,0005.88,0002.40,0001.84
2021-11-24 04:13:00,,0814.0,4.99,0.00,26.8,25.8,00.0,35.9,28.6,06.9,0000.0,0006.85,0002.50,0001.83
2021-11-24 04:14:00,,0814.2,5.00,0.00,26.8,25.8,00.0,35.9,28.6,07.1,0000.0,0007.10,0002.56,0001.79
2021-11-24 04:15:00,,0814.5,5.01,0.00,26.8,25.8,00.0,35.9,28.6,07.3,0000.0,0007.65,0002.54,0001.75
2021-11-24 04:16:00,,0814.4,5.00,0.00,26.8,25.8,00.0,35.9,28.6,07.9,0000.0,0007.88,0002.55,0001.74
2021-11-24 04:17:00,,0814.4,4.99,0.00,26.8,25.8,00.0,35.9,28.6,08.4,0000.0,0008.24,0002.54,0001.72
2021-11-24 04:18:00,,0814.6,4.99,0.00,26.8,25.8,00.0,35.9,28.5,08.5,0000.0,0008.97,0002.57,0001.71
2021-11-24 04:19:00,,0814.6,5.00,0.00,26.8,25.8,00.0,35.9,28.5,08.7,0000.0,0008.94,0002.61,0001.70
2021-11-24 04:20:00,,0814.9,5.00,0.00,26.8,25.8,00.0,35.9,28.5,08.7,0000.0,0008.36,0002.66,0001.69
2021-11-24 04:21:00,,0814.6,4.99,0.00,26.8,25.8,00.0,35.9,28.5,08.5,0000.0,0008.41,0002.68,0001.68
2021-11-24 04:22:00,,0814.4,5.00,0.00,26.8,25.8,00.0,35.9,28.5,08.5,0000.0,0008.23,0002.71,0001.66
2021-11-24 04:23:00,,0814.3,5.00,0.00,26.8,25.8,00.0,35.9,28.5,08.8,0000.0,0008.34,0002.70,0001.65
2021-11-24 04:24:00,,0814.3,5.00,0.00,26.8,25.8,00.0,35.9,28.5,08.7,0000.0,0008.02,0002.70,0001.68
2021-11-24 04:25:00,,0814.3,5.00,0.00,26.8,25.8,00.0,35.9,28.6,08.8,0000.0,0008.16,0002.73,0001.71
2021-11-24 04:26:00,,0814.4,5.00,0.00,26.8,25.8,00.0,35.9,28.6,08.7,0000.0,0007.73,0002.73,0001.74
2021-11-24 04:27:00,,0814.4,4.99,0.00,26.8,25.8,00.0,35.9,28.6,08.7,0000.0,0007.52,0002.71,0001.74
2021-11-24 04:28:00,,0814.9,5.02,0.00,26.8,25.8,00.0,35.9,28.6,08.7,0000.0,0008.60,0002.75,0001.74
2021-11-24 04:29:00,,0814.9,5.00,0.00,26.8,25.8,00.0,35.9,28.6,08.8,0000.0,0007.86,0002.77,0001.75
2021-11-24 04:30:00,,0815.0,5.00,0.00,26.8,25.8,00.0,35.9,28.5,08.7,0000.0,0007.81,0002.72,0001.74
2021-11-24 04:31:00,,0814.9,4.99,0.00,26.8,25.7,00.0,35.8,28.4,08.8,0000.0,0007.70,0002.65,0001.73
2021-11-24 04:32:00,,0814.9,5.01,0.00,26.8,25.7,00.0,35.8,28.4,08.8,0000.0,0007.62,0002.60,0001.72
2021-11-24 04:33:00,,0814.9,4.99,0.00,26.8,25.7,00.0,35.8,28.4,08.9,0000.0,0007.51,0002.54,0001.73
2021-11-24 04:34:00,,0814.9,5.00,0.00,26.8,25.7,00.0,35.8,28.4,09.0,0000.0,0007.12,0002.50,0001.73
2021-11-24 04:35:00,,0814.8,5.00,0.00,26.8,25.7,00.0,35.8,28.4,09.0,0000.0,0006.96,0002.45,0001.73
2021-11-24 04:36:00,,0814.9,5.00,0.00,26.7,25.6,00.0,35.8,28.4,09.0,0000.0,0006.59,0002.40,0001.73
2021-11-24 04:37:00,,0814.9,4.99,0.00,26.8,25.7,00.0,35.8,28.4,09.1,0000.0,0006.72,0002.40,0001.74
2021-11-24 04:38:00,,0815.0,4.99,0.00,26.7,25.7,00.0,35.8,28.4,09.2,0000.0,0006.88,0002.40,0001.75
2021-11-24 04:39:00,,0815.0,5.00,0.00,26.8,25.7,00.0,35.8,28.4,09.3,0000.0,0005.24,0002.35,0001.77
2021-11-24 04:40:00,,0814.6,5.01,0.00,26.8,25.7,00.0,35.8,28.5,09.4,0000.0,0005.17,0002.36,0001.77
2021-11-24 04:41:00,,0814.6,5.00,0.00,26.7,25.7,00.0,35.8,28.5,09.5,0000.0,0005.14,0002.36,0001.79
2021-11-24 04:42:00,,0814.6,5.01,0.00,26.8,25.7,00.0,35.8,28.6,09.5,0000.0,0005.16,0002.36,0001.79
2021-11-24 04:43:00,,0815.0,5.00,0.00,26.7,25.7,00.0,35.8,28.5,09.5,0000.0,0005.30,0002.38,0001.80
2021-11-24 04:44:00,,0815.1,5.00,0.00,26.7,25.7,00.0,35.8,28.5,09.6,0000.0,0005.42,0002.43,0001.81
2021-11-24 04:45:00,,0815.0,5.01,0.00,26.7,25.6,00.0,35.8,28.4,09.6,0000.0,0005.68,0002.48,0001.82
2021-11-24 04:46:00,,0814.7,4.99,0.00,26.7,25.6,00.0,35.8,28.3,09.5,0000.0,0006.09,0002.46,0001.81
2021-11-24 04:47:00,,0814.9,5.00,0.00,26.7,25.6,00.0,35.8,28.3,09.5,0000.0,0005.86,0002.44,0001.82
2021-11-24 04:48:00,,0814.9,4.99,0.00,26.7,25.6,00.0,35.8,28.3,09.4,0000.0,0005.70,0002.43,0001.82
2021-11-24 04:49:00,,0814.8,5.00,0.00,26.7,25.6,00.0,35.7,28.3,09.4,0000.0,0005.41,0002.46,0001.81
2021-11-24 04:50:00,,0814.8,4.99,0.00,26.6,25.6,00.0,35.7,28.2,09.4,0000.0,0004.70,0002.46,0001.81
2021-11-24 04:51:00,,0814.9,5.01,0.00,26.6,25.6,00.0,35.7,28.2,09.3,0000.0,0004.82,0002.39,0001.81
2021-11-24 04:52:00,,0814.9,5.00,0.00,26.6,25.6,00.0,35.7,28.2,09.3,0000.0,0005.35,0002.42,0001.80
2021-11-24 04:53:00,,0815.0,4.99,0.00,26.6,25.6,00.0,35.7,28.2,09.3,0000.0,0005.79,0002.48,0001.80
2021-11-24 04:54:00,,0815.2,4.99,0.00,26.6,25.5,00.0,35.7,28.3,09.3,0000.0,0005.99,0002.49,0001.80
2021-11-24 04:55:00,,0815.0,5.01,0.00,26.6,25.5,00.0,35.7,28.3,09.3,0000.0,0005.90,0002.48,0001.80
2021-11-24 04:56:00,,0815.2,5.01,0.00,26.6,25.5,00.0,35.7,28.3,09.3,0000.0,0005.85,0002.47,0001.78
2021-11-24 04:57:00,,0815.1,5.00,0.00,26.6,25.5,00.0,35.7,28.3,09.2,0000.0,0005.39,0002.48,0001.77
2021-11-24 04:58:00,,0815.2,4.99,0.00,26.7,25.6,00.0,35.7,28.3,09.1,0000.0,0005.36,0002.46,0001.76
2021-11-24 04:59:00,,0815.2,4.99,0.00,26.7,25.6,00.0,35.7,28.4,09.0,0000.0,0005.79,0002.43,0001.76
